sat.trackr.live / text

‹ back to catalog

TIANYI B

NORAD 64049 · 2025-103B

PAYLOAD ACTIVE UNKNOWN

§ Identity

Operator
Country
PRC
Launch date
2025-05-17
Launch site
JSC
Launch vehicle
Mass (kg)
RCS (m²)

External: N2YO · Heavens-Above · Gunter

§ Orbital elements

Epoch: 2026-05-25T04:41:42.541728Z

Period
94.75 min
Inclination
97.3800°
Eccentricity
0.0000408
Mean motion
15.19763213 rev/d
Perigee alt
506.3 km
Apogee alt
506.8 km
Semi-major
6,884.7 km
B*
1.3568e-4
RAAN
217.5710°
Arg perigee
229.4703°
Mean anomaly
130.6496°
Rev number
5,657

§ Raw data

TIANYI B1 64049U 25103B   26145.19563127  .00002835  00000+0  13568-3 0  99992 64049  97.3800 217.5710 0000408 229.4703 130.6496 15.19763213 56574

JSON: /api/v1/satellites/64049 · /tle

For live sub-satellite position, see the globe view (requires WebGL).

§ Visibility from observer

Set your observer location to see the next 7 days of passes ≥ 10°. The values pass through the URL so the page stays shareable.

No JS? Fill the form by hand. The geolocation button needs JavaScript.

§ Radio — SatNOGS DB

ModeDescriptionDownlinkUplink
FSK Mode U TLM 401.251 MHz

1 transmitter · refreshed weekly from db.satnogs.org